FENGYUN 1C DEB

Satellite information

Favourite Embed

Satellite Type and Status

DEBRISIN ORBIT

Key statistics

Satellite FENGYUN 1C DEB at a glance.

Uptime

9715

Days in orbit

Revolutions

≈ 14.2

Per day

Orbit

SSO

Sun Synchronous Orbit

Inclination

98.8

Latest

Satellite identification and parameters

Extended collection of information and parameters for FENGYUN 1C DEB.

Object identification

Identified? True

Debris? True

Object name: FENGYUN 1C DEB

International designator: 1999-025SV

Object number (NORAD): 30140

Object ID (CCSDS): 30140

Country: PEOPLES REPUBLIC OF CHINA (PRC)

Current information (Y/N): Y

RCS size: SMALL

Orbital parameters

Period: 101.355 minutes

Inclination: 98.8269 deg

SMA: 7200.979 km

Apoapsis: 852.066 km

Periapsis: 793.621 km

RAAN: 48.9963 deg

Eccentricy: 0.00405813

Argument of periapsis: 311.5162 deg

Mean anomaly: 77.8073 deg

Mean motion: 14.20742777 rev/day

Mean motion (dot): 0.00004328 rev/day2

B* drag term: 0.0020096414 1/REarth

Two-line elements (TLE)

Creation date: Dec. 12, 2025, 10:14 a.m.

Reference frame: TEME

Reference center: EARTH

Epoch: Dec. 12, 2025, 2:59 a.m. UTC

TLE line 0: 0 FENGYUN 1C DEB

TLE line 1: 1 30140U 99025SV 25346.12462616 .00004328 00000-0 20096-2 0 9997

TLE line 2: 2 30140 98.8269 48.9963 0040581 311.5162 77.8073 14.20742777971356

Live tracking on map

Real-time ground track for satellite FENGYUN 1C DEB.

In-orbit conjunctions

A list of the most updated potential collisions computed for object FENGYUN 1C DEB.

Target Orbit TCA Probability of collision Miss distance Type
FENGYUN 1C DEB SSO 2025-06-15 18:21:54 0.0003399978 64.0 (m) DEBRIS
CZ-4 DEB SSO 2025-03-20 04:33:37 0.0001342918 168.0 (m) DEBRIS
SL-3 R/B LEO 2024-11-11 07:40:08 0.0001448733 457.0 (m) ROCKET BODY
CZ-6A DEB LEO 2024-10-31 08:55:53 0.0003989404 276.0 (m) DEBRIS

Associated space launch

Chinese polar orbiting meteorological satellite

FENGYUN 1C DEB was lifted into orbit during the mission ‘Long March 4B | Feng Yun 1C’, on board a Long March 4B space rocket.

The launch took place on May 10, 1999, 1:33 a.m. from Launch Complex 7.

For more information about the launch, click the button.

Launch to space Long March 4B | Feng Yun 1C
Long March 4B | Feng Yun 1C

Agency: N/A

Status: Launch Successful

Launch date: May 10, 1999, 1:33 a.m. UTC

Rocket: Long March 4B

Launch pad: Launch Complex 7

Location: Taiyuan Satellite Launch Center, People's Republic of China

...

Latest news about this satellite

There are no fresh news available about this satellite. Check back as we update our databases every day.


Newsletter sign-up

Weekly statistics, charts and insights to help you stay on top of the space industry.